EW9479 Weather Reports


Display with metric or nautical units.
time (UTC)temp
F
wind
direction
speed
MPH
gust
MPH
rain 1hr
in
rain 24hr
in
rain mn
in
humidity
%
barometer
mb
20260505090039 61 200 4.0 9.0 0.00 0.00 0.00 74 1010.1
20260505084539 60 191 5.0 9.0 0.00 0.00 0.00 74 1010.3
20260505083049 60 203 4.0 7.0 0.00 0.00 0.00 75 1010.5
20260505081537 60 193 5.0 8.0 0.00 0.00 0.00 74 1010.6
20260505080043 60 205 4.0 7.0 0.00 0.00 0.00 74 1010.2
20260505074539 61 198 4.0 6.0 0.00 0.00 0.00 74 1010.5
20260505073037 61 190 4.0 8.0 0.00 0.00 0.00 73 1011.2
20260505071538 61 186 4.0 7.0 0.00 0.00 0.00 72 1011.5
20260505070037 61 216 5.0 8.0 0.00 0.00 0.00 72 1011.8
20260505064554 62 181 4.0 8.0 0.00 0.00 0.00 71 1012.1
20260505063041 62 204 5.0 7.0 0.00 0.00 0.00 71 1012.1
20260505061539 62 204 5.0 8.0 0.00 0.00 0.00 71 1012.2
20260505060039 62 213 4.0 6.0 0.00 0.00 0.00 70 1012.2
20260505054547 62 222 4.0 8.0 0.00 0.00 0.00 70 1012.2
20260505053037 62 203 4.0 7.0 0.00 0.00 0.00 70 1012.2
20260505051538 62 200 2.0 4.0 0.00 0.00 0.00 70 1012.5
20260505041539 64 197 3.0 6.0 0.00 0.00 0.00 66 1012.2
20260505040048 64 188 2.0 4.0 0.00 0.00 0.00 65 1012.4
20260505034601 65 187 1.0 3.0 0.00 0.00 0.00 65 1012.2
20260505033042 65 198 2.0 4.0 0.00 0.00 0.00 64 1012.1
20260505031538 65 210 3.0 6.0 0.00 0.00 0.00 64 1012.1
20260505030048 66 186 4.0 6.0 0.00 0.00 0.00 63 1012.0
20260505024542 66 205 4.0 6.0 0.00 0.00 0.00 62 1011.9
20260505023043 67 203 2.0 5.0 0.00 0.00 0.00 61 1011.8
20260505021540 68 209 0.0 2.0 0.00 0.00 0.00 59 1011.6
20260505020052 69 186 2.0 5.0 0.00 0.00 0.00 58 1011.5
20260505014542 69 185 3.0 7.0 0.00 0.00 0.00 57 1011.4
20260505013044 70 200 4.0 7.0 0.00 0.00 0.00 56 1011.5
20260505011546 71 218 3.0 6.0 0.00 0.00 0.00 54 1011.5
20260505010057 72 180 4.0 7.0 0.00 0.00 0.00 52 1011.4
20260505004601 73 199 4.0 7.0 0.00 0.00 0.00 51 1011.4
20260505003045 74 200 4.0 9.0 0.00 0.00 0.00 50 1011.5
20260505001544 75 200 6.0 10.0 0.00 0.00 0.00 48 1011.5
20260505000042 76 195 5.0 9.0 0.00 0.00 0.00 48 1011.5
20260504234540 76 207 8.0 15.0 0.00 0.00 0.00 46 1011.4
20260504233038 76 219 8.0 13.0 0.00 0.00 0.00 46 1011.5
20260504231545 77 178 10.0 15.0 0.00 0.00 0.00 44 1011.5
20260504230038 77 199 10.0 18.0 0.00 0.00 0.00 45 1011.6
20260504224544 78 210 10.0 21.0 0.00 0.00 0.00 45 1011.6
20260504223039 78 204 9.0 19.0 0.00 0.00 0.00 43 1011.5
20260504221554 78 203 10.0 20.0 0.00 0.00 0.00 45 1011.5
20260504220037 79 198 11.0 18.0 0.00 0.00 0.00 43 1011.5
20260504214543 79 196 10.0 17.0 0.00 0.00 0.00 42 1011.4
20260504213043 79 213 14.0 22.0 0.00 0.00 0.00 44 1011.5
20260504211538 79 205 8.0 19.0 0.00 0.00 0.00 46 1011.4
20260504210046 79 177 13.0 23.0 0.00 0.00 0.00 45 1011.7
20260504204537 79 214 10.0 17.0 0.00 0.00 0.00 45 1012.0
20260504203044 79 214 12.0 19.0 0.00 0.00 0.00 46 1012.1
20260504201539 79 217 10.0 18.0 0.00 0.00 0.00 46 1012.4
20260504200038 79 192 11.0 20.0 0.00 0.00 0.00 46 1012.8
20260504194542 79 206 10.0 17.0 0.00 0.00 0.00 46 1013.0
20260504193044 78 188 13.0 21.0 0.00 0.00 0.00 46 1013.2
20260504191607 79 200 10.0 17.0 0.00 0.00 0.00 46 1013.4
20260504190040 78 217 11.0 21.0 0.00 0.00 0.00 47 1013.5
20260504184549 78 229 12.0 20.0 0.00 0.00 0.00 46 1013.7
20260504183038 78 207 9.0 23.0 0.00 0.00 0.00 48 1013.7
20260504181544 77 221 12.0 18.0 0.00 0.00 0.00 47 1013.9
20260504180043 77 190 12.0 20.0 0.00 0.00 0.00 47 1014.0
20260504174538 77 235 10.0 17.0 0.00 0.00 0.00 48 1014.2
20260504173038 77 209 8.0 16.0 0.00 0.00 0.00 51 1014.5
20260504171541 76 193 6.0 16.0 0.00 0.00 0.00 53 1014.7